Theta_e
320 318 320 319 318 318 320 324 327 328 331 334 334 329 324 325 331 331 328 328 329 328 328 327 325 325 324 322 321 319 317 316 315 313 312 311 310 310 310 310 311 311 310 310 309 308 308 311 315 319 321 322 322 322 322 322 322 322 323 324 324 323 323 323 323 323 323 323 322 321 322 322 321 321 321 320 319 319 320 321 318 317 318 318 317 317 317
320 318 321 319 317 319 320 321 322 323 326 327 327 325 322 322 324 324 323 323 321 320 321 320 319 318 316 313 312 310 310 310 310 309 308 307 307 308 307 307 307 306 306 306 305 305 305 306 308 313 318 321 321 321 322 322 322 322 322 323 323 322 323 323 323 322 322 323 322 321 322 321 320 320 321 321 321 320 321 322 320 319 319 318 317 316 317
322 321 323 319 317 320 320 318 318 320 323 323 324 324 323 323 321 318 319 321 318 315 314 312 312 311 310 308 308 307 307 307 307 306 306 306 306 306 305 305 304 304 304 304 304 304 304 305 305 307 312 318 321 322 322 321 322 322 322 322 321 321 322 322 322 322 323 323 323 322 322 322 320 319 320 321 322 322 321 321 321 320 320 318 317 317 317
323 320 322 320 318 321 322 319 317 319 322 323 324 325 324 324 321 318 320 321 318 315 313 309 308 308 308 307 306 306 305 305 305 305 304 305 304 304 303 302 302 302 303 303 303 303 303 304 305 305 308 313 317 318 316 315 317 319 319 319 319 320 321 321 321 322 322 323 323 323 323 323 322 320 320 320 321 322 323 323 322 322 321 320 319 319 318
323 321 321 321 323 326 325 319 315 315 320 324 325 324 322 321 321 321 322 319 313 313 312 308 306 306 305 305 305 304 304 304 304 304 303 303 303 303 302 302 301 301 301 301 302 302 303 303 304 305 306 308 309 309 307 307 309 310 309 309 310 311 314 318 320 321 321 322 322 323 322 322 322 322 321 320 322 323 323 323 323 323 322 322 321 320 320
324 321 320 322 325 325 321 317 313 313 319 323 323 321 319 318 318 318 316 312 309 309 307 305 304 304 303 304 303 303 303 303 303 303 303 303 302 302 302 301 301 301 301 301 301 302 302 302 303 304 305 305 305 305 305 305 305 305 304 304 304 304 306 310 313 315 317 319 321 321 321 320 321 321 321 321 322 322 322 323 323 323 323 323 322 322 321
323 320 322 324 324 320 318 315 311 311 315 317 316 315 313 312 313 312 311 309 308 306 305 303 303 302 302 303 303 303 303 303 303 303 304 304 303 303 302 302 302 301 301 301 301 301 301 302 302 303 304 305 305 304 304 304 304 304 304 304 303 304 304 305 306 307 309 311 313 314 315 316 317 319 320 320 320 320 321 321 321 321 321 321 321 321 321
322 322 324 323 319 316 317 316 311 310 313 315 315 316 313 310 310 310 309 308 306 305 304 304 303 303 304 303 304 304 304 304 304 304 304 305 304 303 302 302 301 301 301 301 301 301 301 302 302 303 303 304 304 304 304 303 303 303 303 303 303 303 303 303 303 304 304 305 305 306 307 308 309 312 314 316 317 318 319 320 320 320 321 321 320 320 319
321 322 321 319 317 316 318 316 311 309 311 312 315 316 313 310 309 307 306 306 305 304 304 304 304 306 306 305 305 305 304 304 304 304 304 304 304 303 303 302 301 301 301 301 301 301 301 302 302 302 303 303 303 303 303 302 302 302 302 301 301 302 302 302 302 302 303 303 303 304 304 305 305 305 307 307 308 310 311 313 314 315 316 318 319 319 319
320 321 318 318 320 318 315 314 312 310 311 311 312 315 314 310 307 305 304 305 305 304 305 305 306 308 309 307 305 305 304 303 303 304 303 303 303 303 303 303 302 301 301 301 301 301 302 301 302 302 302 302 302 301 301 301 301 301 300 300 300 300 300 301 301 301 302 302 302 303 303 303 303 304 304 304 304 305 305 306 307 308 310 312 314 317 318
321 322 320 319 320 316 314 314 313 312 312 312 313 317 317 311 305 304 304 304 304 305 305 306 307 309 309 306 305 304 304 303 303 302 302 301 301 301 302 302 301 301 300 300 300 301 301 301 301 301 301 301 301 300 300 300 300 300 300 300 300 300 300 300 300 300 301 301 301 301 301 302 302 302 303 303 303 303 304 304 305 306 306 308 309 312 314
319 319 318 316 316 314 312 312 313 311 310 311 314 319 319 311 306 305 304 304 305 305 306 307 308 308 307 305 303 303 302 302 302 301 300 300 299 300 301 301 300 301 300 300 300 300 300 300 300 300 300 300 300 299 299 299 299 299 299 300 300 300 300 300 300 300 300 300 300 300 300 301 301 301 301 302 302 303 303 303 303 304 304 305 306 307 308
317 316 316 314 313 313 310 309 309 309 309 312 316 318 316 310 307 306 305 305 306 306 307 307 306 305 305 303 303 303 302 302 302 300 299 299 299 300 301 300 300 301 300 300 300 300 300 300 300 300 299 299 299 299 299 299 299 299 299 299 299 299 299 299 299 300 300 300 300 300 300 300 300 300 301 301 301 302 302 302 302 303 303 303 304 304 305
315 315 314 313 313 310 306 306 308 309 312 316 316 313 311 309 307 307 307 306 307 307 306 305 304 303 303 302 302 303 302 302 301 299 298 298 299 300 300 300 300 300 300 300 300 299 299 299 299 299 299 299 299 298 298 298 298 298 299 299 299 299 299 299 299 299 299 299 299 299 299 299 299 300 300 300 300 301 301 301 301 302 302 302 302 303 303
314 315 313 314 314 309 305 307 310 310 312 314 311 307 307 307 305 305 305 305 304 304 303 302 302 301 301 301 301 301 300 300 299 299 298 298 299 299 300 300 300 299 299 299 299 299 299 299 299 299 299 298 298 298 298 298 298 298 298 298 298 298 298 298 298 298 298 298 298 298 298 298 299 299 299 299 299 300 300 300 300 301 301 301 301 301 302
313 314 312 310 309 305 303 307 309 308 307 307 306 305 304 304 304 303 303 302 302 301 301 300 301 300 300 300 300 300 301 300 298 298 298 299 299 299 299 299 299 299 299 298 298 299 299 299 299 299 298 298 298 298 297 297 298 297 297 298 298 298 297 297 297 298 297 298 298 297 297 298 298 298 298 298 298 298 298 298 298 299 299 299 299 300 300
309 310 308 305 304 303 302 304 304 304 304 304 304 304 303 303 303 302 302 302 301 301 300 300 301 300 300 300 300 301 302 300 298 298 298 299 299 299 299 299 299 299 299 298 299 298 298 299 299 298 298 298 298 297 297 297 297 296 296 297 297 297 297 297 297 297 297 297 297 297 297 296 296 296 296 296 296 297 297 297 297 297 297 297 298 298 299
305 306 304 303 303 303 302 303 303 303 303 303 302 303 303 303 303 302 302 302 301 301 301 301 301 301 300 301 301 301 301 300 298 298 299 298 299 299 298 298 298 298 298 298 298 298 298 298 298 298 298 298 297 297 297 296 296 296 296 296 296 296 297 297 297 297 296 296 296 296 296 296 296 295 295 295 295 295 296 296 296 296 296 296 296 297 297
307 307 304 302 303 302 301 302 302 301 302 301 302 302 302 302 302 302 302 302 302 302 301 301 301 301 301 301 301 301 302 300 298 298 298 298 298 298 298 298 298 298 298 298 298 298 298 298 298 298 298 297 297 297 297 296 296 296 295 296 296 296 296 296 296 296 296 296 296 296 296 296 296 295 295 295 295 295 295 295 295 295 295 296 296 296 296
308 307 304 302 302 302 301 302 301 301 301 301 300 301 301 301 301 301 301 301 302 301 301 301 301 302 302 302 302 302 301 300 299 299 298 298 299 299 298 298 298 298 298 298 298 298 298 298 298 298 297 297 297 297 297 296 296 296 295 295 295 295 296 296 296 296 296 296 296 296 296 296 296 296 296 296 296 295 295 295 295 295 295 295 295 295 296
306 304 303 303 303 302 301 302 301 300 301 300 300 301 300 300 300 300 300 299 299 299 299 299 300 302 302 300 300 301 300 298 298 298 298 298 299 298 298 298 298 298 298 298 298 298 298 298 297 297 298 298 297 297 297 296 296 296 296 295 295 295 296 296 296 296 296 296 296 296 296 296 296 296 296 296 296 296 295 296 296 295 295 295 295 295 296
307 306 304 305 306 304 301 302 302 301 300 300 300 301 300 300 300 300 300 299 298 298 298 297 298 301 300 298 297 298 297 296 296 298 298 298 298 298 298 298 298 298 298 298 298 298 298 297 297 297 298 298 297 297 297 296 296 296 296 295 295 295 296 296 296 296 296 296 296 296 296 295 295 295 295 295 295 295 296 295 295 295 295 295 295 295 295
309 309 306 306 307 305 302 303 303 302 301 301 301 300 300 300 299 299 299 301 300 299 298 296 297 298 297 296 295 295 295 295 296 297 297 297 298 298 298 298 298 298 298 298 298 298 298 298 297 297 298 298 297 297 297 297 297 297 296 296 296 296 296 296 297 296 296 296 296 295 295 294 294 294 294 294 294 295 295 294 294 294 294 294 294 295 295
307 307 306 305 305 304 303 304 304 302 300 301 302 301 300 300 298 297 297 298 299 299 297 296 296 296 295 296 296 295 295 296 297 297 297 297 298 298 298 298 298 298 298 298 298 298 298 298 298 298 298 298 297 297 297 297 297 297 297 296 296 296 296 297 296 296 296 295 295 294 293 293 293 293 294 294 294 294 293 293 293 293 293 294 294 294 294
307 305 304 304 303 303 302 302 301 299 298 298 300 300 299 298 297 297 296 295 295 297 296 295 295 296 296 296 296 296 296 296 296 297 297 297 298 298 298 298 298 298 298 298 298 298 298 298 298 298 298 297 297 297 297 297 297 297 297 297 297 297 297 296 296 296 295 295 294 293 293 293 293 293 293 293 293 293 292 291 292 292 293 293 294 294 294
305 303 303 302 301 301 300 300 300 299 297 297 298 298 297 297 297 296 296 295 295 296 295 295 296 296 296 296 296 296 296 296 296 297 297 297 297 297 297 297 298 297 297 297 297 297 298 298 298 298 297 297 297 297 297 297 297 296 296 297 297 296 296 296 296 296 295 294 294 294 294 294 294 293 293 293 293 292 292 292 292 293 293 293 293 293 294
304 303 303 302 300 300 300 300 301 299 296 296 296 296 296 297 296 295 295 295 295 296 296 296 296 296 296 296 296 296 296 296 296 296 296 296 296 297 297 297 297 297 297 297 297 297 298 298 298 298 297 297 297 297 297 297 296 296 296 296 296 296 296 295 295 295 294 293 294 294 294 294 294 294 294 293 293 293 292 292 292 293 293 293 293 293 293
303 302 302 303 302 300 299 299 299 297 296 295 296 296 296 296 295 294 295 295 294 295 296 296 296 296 296 296 296 296 296 296 296 295 295 295 296 296 296 297 297 297 297 297 297 298 298 297 297 297 297 297 298 298 297 297 296 296 296 296 296 295 295 295 294 294 294 294 294 294 294 294 294 294 294 294 293 293 293 293 293 293 293 292 292 293 294
301 301 301 302 300 298 298 298 298 298 297 296 295 295 296 296 297 297 296 295 294 294 295 295 296 296 296 296 296 296 296 295 295 295 295 295 295 295 296 296 296 296 297 297 297 298 297 297 297 297 297 297 298 298 297 297 297 296 296 296 295 295 294 294 294 294 294 294 295 295 295 295 295 295 295 294 294 294 294 293 293 293 293 293 293 294 295
301 301 302 301 299 298 298 298 298 300 299 296 295 296 295 296 298 299 297 295 294 294 294 295 295 295 295 295 295 296 296 295 295 295 294 294 294 294 295 295 295 296 296 297 298 297 296 296 297 297 297 297 298 298 297 297 297 296 296 296 295 295 294 294 294 294 294 295 295 295 295 295 295 295 295 295 295 295 294 294 294 293 293 293 293 294 295
302 302 303 303 301 300 301 300 300 301 299 296 296 299 298 296 298 299 296 294 293 293 294 295 295 295 295 295 295 295 295 295 295 295 294 293 293 293 294 294 295 295 295 296 297 296 296 296 296 296 297 297 297 297 297 297 297 297 296 296 295 295 294 294 294 294 295 295 295 295 296 295 295 295 295 295 295 295 294 294 293 293 292 293 294 294 294
302 302 302 301 300 301 301 301 301 301 300 299 299 300 298 297 298 298 296 295 294 294 294 294 294 295 295 295 294 295 294 294 294 293 292 291 291 292 293 294 294 294 295 295 296 296 295 296 296 296 296 296 297 297 297 297 297 296 296 295 295 294 294 294 294 295 295 295 295 295 295 295 294 294 295 295 295 294 293 293 293 292 292 293 293 294 293
302 302 301 300 300 301 301 301 300 299 300 300 298 296 295 295 295 295 295 295 295 294 295 294 294 295 294 294 294 293 292 291 290 289 289 289 291 293 294 294 293 293 294 295 295 295 295 296 296 296 295 296 297 297 297 297 297 296 296 295 295 294 294 294 294 295 295 296 295 295 294 294 294 294 295 294 294 293 292 292 292 292 292 293 293 294 294
303 304 303 301 300 300 299 300 301 300 299 298 296 294 294 295 294 295 295 295 295 295 295 295 294 294 293 293 292 291 289 288 288 288 288 289 291 293 293 293 293 293 294 294 295 295 296 296 296 295 295 296 297 297 297 296 296 296 296 295 295 294 294 294 295 295 295 296 295 294 294 294 294 294 294 294 293 293 293 293 293 293 292 292 293 293 293
299 300 299 298 297 297 296 298 299 300 300 299 297 296 296 295 295 295 295 295 295 295 295 295 294 293 293 292 291 290 289 288 288 287 288 289 290 292 292 293 293 293 293 294 295 295 295 296 296 295 294 295 297 297 296 296 297 296 295 295 294 294 294 294 294 294 295 295 295 294 294 293 294 294 294 293 293 293 294 293 293 293 293 292 292 292 292
297 297 296 296 296 296 296 296 296 296 296 296 296 296 296 296 296 296 295 295 296 296 295 295 294 293 292 292 291 290 289 288 288 287 287 287 288 290 291 292 292 292 292 294 295 295 295 296 295 294 294 296 297 297 296 296 297 296 295 295 294 294 294 294 294 294 294 294 294 294 293 293 293 294 294 293 294 294 294 293 293 293 293 293 292 292 292
297 297 297 297 296 296 296 296 296 296 296 295 295 295 295 296 296 296 296 296 296 296 295 294 293 292 292 293 292 291 290 289 288 288 287 287 287 289 290 291 292 291 292 293 294 294 294 294 294 293 294 296 297 296 295 296 297 296 295 295 294 294 294 294 294 294 294 294 294 293 293 293 293 293 293 293 293 293 293 293 293 293 293 293 292 292 292
297 298 298 297 297 297 297 296 296 297 297 297 296 295 296 296 296 296 296 296 296 295 295 295 294 293 293 293 292 291 290 289 289 288 287 286 287 289 290 291 291 291 292 293 294 293 293 293 293 294 296 297 297 296 295 295 296 296 296 295 294 294 294 294 294 293 293 293 293 293 293 293 293 293 293 293 293 293 293 293 293 293 293 292 292 292 292
296 297 298 297 297 297 296 297 297 297 297 297 296 296 296 296 295 295 295 295 295 295 295 294 294 293 293 293 292 292 291 291 290 289 287 286 287 289 290 290 291 292 293 294 293 292 292 293 292 294 296 296 295 295 295 295 294 295 295 295 294 293 293 293 293 293 293 293 293 293 292 292 292 292 293 293 293 293 293 293 293 293 293 292 292 292 292
297 297 297 298 297 296 296 296 297 296 296 297 297 296 296 296 295 295 294 294 295 295 295 294 293 293 292 293 293 292 292 292 292 291 288 287 287 287 288 290 292 293 294 293 292 292 292 292 292 293 295 294 292 292 294 295 294 294 295 295 294 293 293 293 293 293 293 293 293 293 292 292 292 292 292 293 292 292 293 293 293 292 292 292 292 292 292
297 298 297 297 297 296 296 296 296 296 296 297 297 297 297 296 296 295 294 294 295 295 294 294 294 293 294 294 293 293 293 293 292 292 290 288 287 287 288 290 292 294 294 293 292 292 292 292 292 292 294 292 289 290 293 295 294 294 295 295 295 294 293 293 293 293 293 293 293 292 292 292 292 292 292 292 292 292 292 292 292 292 292 292 292 292 292
297 297 297 297 297 296 296 296 296 296 296 296 296 296 296 296 296 296 295 295 295 295 294 294 294 294 294 294 294 294 294 293 293 293 291 289 288 288 289 291 293 294 294 294 293 292 291 291 291 292 293 291 289 291 293 294 293 294 296 295 295 294 293 293 293 293 293 293 292 292 292 292 291 292 292 292 292 292 292 292 292 292 292 292 291 291 291
297 297 297 297 297 297 297 297 297 297 296 296 296 296 296 296 296 296 296 296 296 295 295 295 295 294 294 294 293 294 294 294 293 293 292 290 289 289 290 292 294 294 294 294 294 292 290 290 291 292 293 291 290 291 293 294 294 295 296 295 295 294 294 293 293 293 293 292 292 292 292 291 291 292 292 292 292 292 292 292 292 292 292 292 292 291 291
297 297 297 297 297 297 297 297 297 297 297 297 297 297 296 296 297 296 296 297 296 295 295 295 295 294 293 293 293 293 293 293 293 293 292 291 290 290 291 292 293 293 293 293 292 290 289 289 291 293 292 290 289 291 293 294 295 296 296 295 295 295 294 293 293 293 293 292 292 292 292 292 292 292 292 292 292 292 292 292 291 291 291 291 291 291 291
297 297 297 297 297 297 297 297 297 297 297 297 297 297 296 296 297 297 297 297 296 296 296 296 295 295 294 293 293 293 292 292 292 292 292 291 291 291 291 291 292 292 292 292 291 290 289 290 292 293 291 289 289 291 293 294 294 295 296 296 295 295 294 294 293 293 293 292 292 292 292 292 292 292 292 291 291 292 292 292 291 291 291 291 291 291 291
297 297 297 297 298 297 297 297 297 297 297 297 297 297 297 296 297 297 297 296 296 297 297 296 296 296 295 294 294 293 292 291 292 292 292 292 292 292 292 292 292 292 291 291 290 289 289 291 292 292 290 289 290 292 293 293 293 294 295 295 295 295 294 294 294 293 293 292 292 292 292 292 292 292 291 291 291 291 291 291 291 291 291 291 291 291 291
298 297 297 297 297 297 297 297 297 297 297 297 296 296 296 296 296 297 296 296 296 296 296 296 297 296 295 295 294 293 292 292 292 292 292 292 292 292 292 293 292 292 291 290 288 287 289 291 291 289 288 289 291 292 292 293 293 293 293 294 295 295 294 294 293 293 293 292 292 292 292 292 291 291 291 291 291 291 291 291 291 291 291 291 290 290 290
298 297 297 297 297 297 297 297 296 296 297 297 297 297 297 296 296 297 296 296 296 296 296 296 296 296 296 296 295 294 293 293 292 292 292 292 292 292 292 293 292 291 291 290 287 287 289 290 289 287 287 290 292 292 292 293 293 292 293 293 294 294 294 293 293 293 293 292 292 292 292 291 291 291 291 291 291 291 291 290 290 290 290 290 290 290 290
297 297 297 297 297 297 297 297 297 297 297 297 297 297 297 296 297 297 296 296 296 296 296 296 297 296 296 296 296 295 294 293 293 292 292 292 291 292 292 292 291 291 291 290 287 287 287 287 286 286 288 291 292 292 292 292 292 292 292 293 293 293 293 293 292 292 292 292 292 292 291 291 291 291 291 290 290 290 290 290 290 290 289 289 289 289 289
298 298 297 297 297 297 297 297 297 297 297 297 296 296 296 296 296 296 296 296 296 296 296 296 296 296 296 297 296 295 294 292 292 292 292 292 292 292 291 291 290 290 289 288 287 286 286 285 285 287 290 291 291 291 291 291 291 291 292 292 292 292 293 293 292 292 292 292 292 291 291 291 290 290 290 290 290 290 290 289 289 289 289 289 288 288 288
298 297 297 297 297 297 297 297 297 297 297 297 297 296 296 296 296 296 296 296 296 296 296 296 296 296 296 296 296 296 295 293 292 292 292 292 292 292 291 291 290 289 287 286 286 286 286 285 287 290 291 291 290 291 291 290 289 289 289 290 291 291 292 292 292 292 292 291 291 291 291 290 290 290 289 289 289 289 289 289 289 289 288 288 288 288 287
297 297 297 297 297 297 297 297 297 297 297 297 297 296 296 296 296 296 296 296 296 296 296 296 296 296 296 296 296 296 296 295 293 292 292 292 292 292 292 291 291 289 286 286 288 288 286 286 288 290 291 290 290 290 290 289 288 288 288 289 290 290 290 290 290 290 290 290 290 290 290 290 289 289 289 288 288 288 288 288 288 288 288 287 287 287 287
Wind_Speed
8 5 1 5 7 6 6 6 6 6 7 9 8 3 2 2 4 4 7 9 8 5 7 8 6 5 6 6 6 7 8 9 9 11 13 11 10 11 12 11 9 8 8 8 10 14 17 19 19 17 16 15 14 14 14 14 14 13 11 10 10 10 12 15 18 20 19 19 20 17 15 16 17 16 16 15 15 16 14 13 14 14 14 17 19 17 17
9 11 8 3 8 10 8 8 6 5 8 10 9 7 7 8 8 7 10 10 7 3 3 5 6 6 7 8 9 9 10 10 11 12 12 11 10 10 11 10 8 8 9 10 14 18 20 22 21 20 18 16 15 15 15 15 15 13 11 11 11 12 12 12 15 16 17 18 18 16 14 15 16 15 13 12 12 12 12 11 11 11 12 17 19 16 15
6 10 10 5 9 14 11 10 10 8 6 7 7 7 8 10 9 7 9 9 5 4 4 5 7 6 8 10 10 9 8 8 11 12 11 11 11 10 9 8 7 7 10 13 16 19 21 22 23 22 20 19 18 18 17 16 14 12 11 12 12 11 9 8 9 9 11 12 12 12 13 13 14 14 11 9 8 7 7 8 9 9 11 14 16 15 14
3 5 7 5 6 12 10 11 12 11 5 4 3 2 4 7 8 8 6 5 3 2 3 6 8 8 11 12 10 9 8 7 10 12 10 10 10 8 8 8 8 8 10 13 16 18 20 23 24 24 25 25 25 24 22 21 20 18 18 18 17 13 10 6 6 6 6 6 6 7 8 9 10 11 10 9 7 5 4 5 7 8 8 9 11 11 12
1 4 6 5 2 6 6 7 9 9 3 3 4 3 4 5 8 8 5 3 2 2 3 7 9 10 11 10 8 7 7 8 10 11 10 10 9 7 7 8 8 9 10 14 17 18 20 22 23 24 29 30 29 27 27 28 28 28 28 28 27 25 21 15 10 8 6 5 5 5 5 6 7 9 10 10 8 6 4 2 3 5 6 7 8 9 10
1 5 6 3 4 4 2 3 6 6 2 4 7 6 5 5 5 5 6 7 7 6 6 7 8 9 9 8 8 7 7 7 9 10 9 9 8 7 7 8 8 9 13 18 20 21 20 19 21 26 30 30 29 28 28 29 30 30 30 31 32 32 30 27 22 18 14 11 8 7 5 4 4 4 6 8 7 5 5 5 5 6 7 8 9 9 10
2 2 4 4 2 1 0 2 6 6 5 7 11 10 7 6 8 10 11 10 10 9 7 6 7 8 9 9 8 8 7 6 7 8 8 7 7 7 7 8 9 11 15 20 22 23 22 20 22 27 29 29 30 29 29 29 29 29 30 30 31 32 31 30 28 26 24 22 19 16 13 10 8 5 3 2 3 3 5 7 9 10 11 10 8 9 10
2 2 3 2 2 2 3 4 6 6 5 6 9 9 7 5 6 10 11 11 10 10 9 7 6 8 9 10 8 7 7 6 5 6 6 6 7 7 8 10 13 16 19 20 20 22 24 25 25 26 27 29 30 29 29 29 29 29 30 30 30 30 29 29 28 27 26 25 24 22 20 19 18 15 12 9 7 5 6 8 10 12 14 13 10 9 9
2 3 2 2 1 2 3 4 4 2 1 2 1 4 3 5 4 6 11 12 10 10 9 7 7 8 9 9 6 6 6 6 6 6 6 6 8 9 11 15 16 18 20 19 19 21 24 25 24 24 25 28 29 29 29 29 29 29 30 30 29 28 27 27 26 25 24 23 23 22 20 20 20 19 16 14 12 10 7 7 8 9 11 12 11 11 10
2 4 3 2 1 1 1 2 4 2 3 5 2 3 2 2 3 6 10 12 11 10 9 8 7 6 8 6 2 2 4 4 4 5 6 7 8 9 11 13 14 15 17 19 20 23 26 26 24 24 25 26 29 29 28 28 30 30 29 28 27 26 26 24 24 24 23 21 21 21 21 20 19 18 16 14 13 12 10 10 11 11 12 12 12 12 13
2 4 3 1 2 2 3 4 5 4 5 6 2 4 1 1 5 7 10 12 11 10 10 8 6 4 5 4 2 1 3 3 4 5 6 7 8 9 10 13 15 16 18 21 23 25 27 25 23 24 26 27 29 29 28 28 29 29 27 26 25 24 23 21 21 21 21 21 21 21 21 20 19 18 17 15 14 13 13 14 14 14 15 15 14 13 13
3 3 2 1 1 1 3 5 5 5 5 2 3 2 3 4 7 7 9 12 11 9 8 5 2 3 5 5 5 5 5 4 5 6 7 9 11 12 12 14 18 19 21 23 25 25 25 24 22 24 26 29 30 28 27 29 29 27 25 23 22 21 20 19 19 19 19 20 20 20 20 19 18 18 17 17 16 16 16 16 16 16 16 17 17 16 15
3 3 3 1 0 2 3 4 6 6 4 0 3 4 4 5 8 6 7 10 9 6 4 3 2 4 6 8 8 7 6 4 4 7 9 13 15 15 14 16 20 22 23 24 24 24 23 23 23 24 26 29 29 27 27 28 27 24 22 20 19 18 18 18 18 18 18 18 18 18 18 18 17 17 17 17 17 17 17 17 17 17 17 17 18 17 17
2 2 3 1 0 2 5 7 6 4 1 2 3 2 0 5 7 6 5 6 6 5 5 6 7 7 9 10 8 7 6 5 5 8 11 15 16 16 16 18 20 22 22 23 23 23 22 23 23 23 25 28 28 27 28 27 23 20 19 18 17 17 17 17 17 16 16 15 15 15 15 15 15 14 15 15 15 16 16 17 17 17 17 17 17 17 16
2 3 3 2 1 3 8 8 4 3 1 3 2 2 4 5 6 7 6 4 6 9 8 8 9 10 10 10 8 8 7 7 9 11 13 14 15 16 17 18 19 21 22 22 23 22 21 21 21 21 23 26 26 26 26 23 19 17 17 16 15 15 15 15 15 15 14 13 13 13 13 13 12 12 12 12 12 14 15 15 15 15 16 17 18 19 18
1 2 2 1 1 5 8 4 2 2 2 1 4 5 5 5 5 6 7 6 7 10 11 10 10 10 10 9 9 8 7 7 9 12 13 15 15 16 17 17 18 21 21 20 21 21 19 19 19 19 20 22 23 22 20 17 16 16 15 14 13 14 14 14 13 13 12 12 12 13 13 12 12 12 13 13 13 13 14 15 15 16 17 18 19 21 21
3 3 2 1 1 3 5 5 4 4 4 5 7 8 7 5 5 5 7 8 8 8 10 10 9 8 8 8 8 8 7 7 9 11 12 13 13 14 17 18 19 20 20 19 19 18 18 18 17 17 17 18 19 18 16 15 17 16 13 11 11 12 13 13 12 12 12 12 13 13 13 14 14 14 15 15 14 14 15 16 16 17 18 19 20 20 21
5 5 3 2 2 4 6 6 5 6 6 6 7 9 8 6 5 6 7 8 8 7 8 9 8 7 7 7 7 7 6 7 9 12 11 11 13 15 17 18 18 18 18 18 17 16 16 16 16 15 15 15 15 14 13 13 15 15 12 10 10 11 12 12 12 13 14 14 14 14 14 14 15 15 15 15 15 15 15 16 17 18 18 18 20 21 21
3 4 2 2 3 4 5 6 6 7 8 7 7 7 7 6 7 8 8 8 8 8 8 8 7 6 7 7 7 6 5 6 8 11 11 12 14 17 16 15 16 16 16 16 14 14 15 14 13 13 13 13 13 12 12 12 14 14 12 11 11 11 11 12 13 14 15 15 14 15 15 15 15 15 15 15 15 15 16 16 17 18 18 18 19 21 21
3 3 3 3 4 4 4 5 5 5 7 7 7 6 7 7 8 8 8 8 7 6 6 7 7 6 6 6 7 5 4 6 7 9 12 15 17 16 14 14 14 13 14 13 12 12 12 12 11 10 10 11 12 12 13 14 15 15 14 13 12 12 11 12 13 13 14 15 15 16 16 15 15 15 15 15 15 15 15 15 16 17 18 18 18 19 19
5 4 4 5 5 5 5 4 4 4 5 7 7 7 7 8 8 8 8 8 8 8 8 7 8 7 6 6 7 6 4 5 7 7 11 15 17 15 13 12 12 11 11 10 9 9 10 10 9 8 7 9 12 13 14 16 16 15 15 14 13 12 12 13 14 14 15 16 16 16 16 16 16 15 15 15 15 15 14 13 14 16 17 17 17 17 17
3 3 4 5 4 3 1 2 4 4 5 7 7 6 6 7 7 7 7 8 9 10 12 12 10 7 5 7 10 8 6 9 11 9 8 11 13 15 15 12 11 10 9 7 7 6 6 7 8 7 6 8 11 12 13 15 15 14 13 13 12 12 12 13 13 14 15 16 16 16 17 18 18 18 17 15 15 15 14 14 14 15 16 16 17 17 17
4 5 6 5 5 4 5 5 5 4 4 6 7 6 6 6 6 7 8 7 7 8 10 14 15 10 7 11 13 10 9 11 12 12 9 6 8 12 13 12 11 10 8 6 5 4 3 5 8 7 5 6 10 11 12 13 13 12 11 11 11 11 11 11 11 12 13 14 16 17 17 17 18 18 18 17 16 15 14 15 17 17 18 17 16 16 16
1 2 5 5 5 5 5 5 5 5 4 6 6 5 5 5 6 9 9 8 8 7 7 11 17 16 14 15 15 11 11 12 12 11 10 7 7 10 11 12 13 11 9 7 4 4 4 5 9 8 4 4 8 9 10 12 12 11 10 11 11 11 10 10 11 12 13 15 17 18 18 17 16 17 18 18 18 16 15 17 18 18 16 15 14 14 14
2 2 3 5 6 6 5 5 5 5 7 8 6 5 7 7 7 9 9 9 13 14 10 9 14 18 17 16 14 11 10 12 13 12 10 8 8 10 11 11 11 10 9 7 1 4 5 8 12 8 1 2 6 7 8 10 11 11 10 9 9 10 10 10 11 13 15 16 17 17 17 17 16 17 18 18 18 19 20 21 19 16 14 14 14 14 16
4 5 6 7 7 6 6 6 4 4 8 11 8 7 11 12 10 11 13 14 17 19 17 14 14 15 15 14 11 8 7 9 11 13 13 11 10 9 8 9 8 6 6 5 1 4 7 11 11 4 3 2 4 5 5 8 10 11 9 7 7 8 8 8 10 12 13 13 15 16 17 17 17 17 17 17 17 18 21 22 22 21 19 17 17 18 19
6 6 7 7 6 4 4 5 5 4 7 12 11 10 13 15 14 14 16 16 17 18 18 17 16 15 13 12 10 7 6 9 11 12 12 12 11 8 6 6 5 4 5 2 2 5 8 11 7 3 6 3 2 3 5 8 11 11 8 7 7 7 7 8 10 10 9 10 14 17 19 19 20 19 18 18 17 16 17 19 21 23 24 23 22 21 20
5 5 6 5 4 3 3 6 9 9 9 12 13 12 12 12 13 13 11 11 12 14 15 16 17 16 14 12 11 9 6 6 8 9 8 7 6 5 3 2 1 1 3 2 3 5 8 9 3 6 5 3 2 3 6 9 10 9 8 9 9 8 8 10 9 8 9 11 15 18 19 19 19 18 17 17 17 17 18 19 19 22 24 26 25 22 17
6 5 6 5 6 7 6 7 7 7 7 9 12 12 11 9 8 7 7 8 11 12 12 15 16 14 13 12 12 11 8 5 3 4 5 5 2 0 1 2 4 3 3 4 6 6 7 7 4 5 3 1 1 4 7 9 8 6 6 9 10 8 9 10 8 8 11 14 16 17 17 17 17 17 16 17 18 18 19 20 20 21 22 23 24 22 18
4 5 6 6 6 7 7 6 5 5 5 6 7 8 8 7 6 5 6 9 12 11 11 14 14 12 11 11 11 12 10 7 5 4 3 2 2 3 4 4 5 5 3 5 7 7 7 7 3 3 1 1 2 4 6 7 7 5 4 7 8 7 8 9 8 10 13 15 15 15 15 15 17 17 16 17 17 17 18 19 19 20 20 19 19 19 18
4 4 6 5 5 6 5 5 5 5 6 6 6 5 5 6 7 6 5 7 10 11 12 14 14 12 11 11 10 11 11 9 8 7 6 6 6 6 5 5 6 6 4 7 10 10 8 7 3 1 1 2 2 3 5 6 5 3 4 6 7 6 7 8 9 10 13 14 14 15 14 15 16 17 16 16 16 16 17 17 17 17 17 15 14 14 14
6 5 5 4 3 4 3 2 5 6 5 6 7 6 7 9 9 7 6 6 9 12 13 13 13 12 11 11 11 10 10 9 9 9 9 9 9 8 7 6 6 6 6 9 12 11 9 9 5 3 3 3 3 3 4 4 3 3 4 6 5 5 6 7 8 10 11 12 13 14 15 15 16 16 15 15 15 15 15 14 14 14 14 12 12 12 11
6 4 2 2 3 5 4 2 5 6 5 5 7 7 9 12 13 12 11 12 12 13 13 13 12 12 12 12 11 9 8 8 8 9 10 10 9 8 7 7 7 8 8 10 11 11 10 9 5 4 4 4 3 3 3 3 2 2 4 5 5 5 4 4 7 9 10 10 11 13 14 15 16 15 14 14 15 15 13 12 12 14 14 11 10 9 9
5 6 5 5 5 5 5 4 5 5 4 5 7 9 11 14 15 15 16 16 13 12 12 12 12 13 13 12 10 8 8 9 9 10 11 10 9 8 8 8 8 8 9 10 11 10 9 6 5 4 4 4 3 3 3 2 1 1 3 4 5 5 2 4 6 7 8 8 8 10 11 13 14 13 12 12 12 13 12 12 12 13 11 10 9 9 8
4 6 6 7 8 9 9 7 7 7 6 5 6 8 11 15 17 17 16 15 12 9 10 11 13 14 14 11 8 9 10 11 11 11 10 9 9 9 9 9 10 10 10 11 11 9 6 5 5 4 4 4 4 4 3 2 1 1 3 4 5 3 2 4 5 6 6 6 6 8 11 12 12 11 10 10 11 12 12 12 12 11 10 9 9 9 10
7 5 4 2 5 10 12 11 11 12 10 9 10 11 11 13 16 16 14 12 10 9 11 14 16 15 14 11 10 10 11 11 11 10 10 9 9 8 9 10 10 9 10 12 11 7 6 6 6 6 5 5 5 4 4 3 2 2 2 4 5 4 5 5 5 6 6 6 5 7 10 10 9 8 9 9 10 11 12 12 13 13 12 12 12 12 14
10 11 9 6 2 4 9 11 11 10 9 10 13 12 10 10 14 16 14 12 11 13 15 17 18 16 14 12 11 10 9 9 9 9 9 9 8 9 9 10 10 9 9 11 9 6 6 6 6 6 6 5 5 5 4 2 2 2 2 3 4 5 6 6 6 6 6 6 5 6 7 8 7 8 8 9 10 11 12 13 14 15 15 16 16 16 17
5 10 9 3 1 2 5 7 7 7 7 8 9 9 8 9 13 16 15 13 13 15 16 17 18 17 15 13 13 12 11 9 8 9 9 9 9 10 11 11 11 10 10 10 8 6 6 6 5 5 5 6 7 6 3 3 2 3 3 2 4 5 6 6 6 7 7 6 6 6 7 8 8 8 8 9 10 11 12 13 14 16 17 18 18 19 19
5 7 7 6 5 4 2 5 6 5 7 10 11 10 9 9 12 13 12 10 10 13 16 18 18 16 15 14 14 15 14 11 10 10 10 10 10 11 12 12 12 11 9 8 7 7 6 5 5 5 7 8 7 6 4 2 2 3 4 2 4 6 6 6 6 7 7 6 6 7 8 8 8 7 8 8 9 11 13 14 14 15 17 18 19 20 20
6 5 4 4 6 9 7 1 3 4 6 10 12 11 10 10 10 10 10 8 7 10 14 18 19 17 16 16 16 16 14 12 12 12 11 10 10 11 13 13 11 10 10 9 8 7 7 6 5 7 8 7 5 6 6 5 4 5 6 5 4 6 7 6 6 6 5 5 6 6 8 9 8 7 7 8 9 11 13 13 14 16 17 17 18 18 19
5 5 5 4 1 5 9 9 5 2 2 8 12 12 11 10 9 10 10 9 8 10 14 18 20 20 18 17 17 15 13 12 13 13 12 11 11 12 13 12 8 9 11 11 8 7 8 7 7 8 8 6 6 5 7 6 6 7 9 8 6 7 7 7 7 7 5 4 4 5 7 9 9 8 8 8 9 10 12 13 14 15 16 17 17 17 17
2 5 6 6 5 2 3 6 8 9 7 2 5 9 10 9 9 9 10 9 7 10 15 20 20 19 18 16 15 13 11 11 13 13 13 12 12 12 11 8 6 8 11 11 9 9 9 9 9 9 7 6 5 5 5 6 7 10 12 9 7 8 8 7 6 6 5 4 4 4 5 7 8 8 8 9 9 10 11 12 14 14 15 15 16 17 17
4 4 5 6 7 6 5 4 3 7 9 9 8 4 5 9 9 9 8 6 4 6 13 19 20 19 17 14 12 11 11 11 12 13 14 13 11 11 10 6 4 7 11 11 9 10 10 10 10 10 8 7 6 5 4 5 9 14 14 11 10 10 9 7 7 7 6 4 4 4 4 4 5 6 6 8 9 10 11 11 12 13 14 14 14 15 15
5 4 5 8 9 9 9 9 6 5 6 8 10 12 8 9 11 9 8 7 5 5 9 13 16 17 15 13 11 11 12 12 11 13 15 13 12 12 12 8 6 7 10 10 10 10 9 9 10 9 7 6 6 6 4 5 9 14 14 13 12 12 11 9 8 7 6 5 5 4 4 4 4 4 4 5 7 9 10 11 12 13 13 13 14 14 14
3 3 4 7 9 10 10 11 12 12 11 10 9 10 9 7 9 10 10 9 8 7 7 8 9 11 13 15 13 12 11 11 11 12 13 13 12 12 13 13 13 12 12 12 12 11 9 9 10 9 7 6 7 7 6 7 9 11 13 14 15 14 12 10 9 8 6 6 6 6 5 4 4 4 4 5 6 7 8 10 11 12 12 13 13 13 12
4 4 3 4 9 12 12 13 14 13 12 10 9 8 5 3 4 6 7 6 7 8 8 9 8 8 10 13 15 14 13 13 12 11 12 12 11 10 10 13 16 16 14 14 13 11 10 11 11 9 8 8 8 8 8 9 9 9 11 15 17 16 14 12 10 9 8 7 7 7 5 4 4 5 6 6 6 6 6 7 8 8 9 10 10 11 11
6 6 5 5 8 13 14 13 12 10 9 7 8 10 8 5 4 4 3 3 6 8 9 11 11 10 9 11 14 16 15 15 13 12 12 12 12 10 9 11 15 17 16 14 12 11 11 11 10 9 9 9 8 9 10 10 9 8 10 13 16 16 14 12 11 11 10 9 9 8 7 6 5 5 6 6 5 5 5 5 6 6 6 6 7 8 8
9 9 8 7 8 10 13 14 11 10 10 9 8 10 10 9 9 8 8 8 9 9 8 8 9 8 7 8 11 14 15 14 12 11 11 12 12 11 8 9 13 16 15 13 11 11 12 11 10 10 11 10 9 9 11 10 9 9 9 11 14 15 14 12 12 12 12 11 11 10 9 9 8 7 7 7 6 5 5 4 4 4 4 4 4 4 5
11 9 7 6 5 7 11 13 12 12 13 12 11 12 13 12 11 11 11 11 10 8 7 7 7 7 6 6 8 11 14 14 12 10 9 9 10 10 7 7 11 15 15 13 11 11 11 11 11 12 13 11 10 11 11 10 9 9 10 10 12 13 13 12 12 13 13 12 11 10 10 10 9 9 9 9 8 7 7 7 6 6 5 4 3 3 3
10 9 8 7 7 7 10 11 12 14 15 15 15 16 16 14 13 13 13 13 12 9 9 9 10 11 10 8 8 9 12 14 13 11 8 8 10 10 8 7 10 12 12 12 11 9 9 10 12 13 12 11 12 12 11 9 9 10 11 11 12 13 13 13 13 13 14 13 13 12 12 11 10 9 10 10 10 10 10 9 9 8 8 7 6 5 5
10 9 8 8 8 8 8 10 12 12 13 13 14 14 14 14 15 15 14 13 13 12 10 10 9 10 10 8 7 6 7 9 10 11 10 9 11 12 10 8 8 9 9 10 11 9 8 11 15 14 11 12 13 12 10 8 8 9 11 12 12 13 13 13 12 13 13 13 13 13 13 12 10 9 10 11 11 12 11 11 10 10 9 9 8 8 7
5 5 5 5 6 7 8 10 12 12 11 11 11 10 9 11 13 14 13 12 12 12 12 11 10 9 8 7 8 8 8 7 8 11 12 12 12 13 12 9 8 7 8 9 11 10 9 12 15 14 11 11 12 11 9 8 8 8 9 11 12 13 13 13 12 12 12 12 12 13 13 12 11 10 10 10 11 12 13 14 14 13 13 12 11 10 9
Wind_Direction
341 332 50 94 101 101 98 106 98 82 75 73 74 42 331 130 123 140 148 124 109 119 120 116 127 125 113 112 102 93 88 86 87 86 83 77 75 77 75 66 58 64 71 67 61 56 52 55 62 67 71 76 81 85 90 96 98 102 112 120 125 133 135 140 153 161 169 182 188 184 180 175 169 169 176 181 187 191 196 203 205 208 211 207 205 209 215
10 5 357 27 101 95 72 61 54 60 85 93 90 78 71 74 75 99 117 104 79 49 57 85 94 93 96 94 85 82 87 92 90 86 82 76 68 70 75 76 70 66 69 65 60 57 52 51 55 61 67 73 76 76 80 86 93 104 116 119 123 129 131 142 155 164 173 180 181 179 178 175 174 174 174 176 184 195 205 212 214 214 211 206 207 213 216
21 13 352 348 98 96 74 45 22 13 54 87 89 98 97 80 67 78 94 89 66 7 6 60 77 83 88 82 77 76 76 84 89 85 80 77 74 68 66 71 70 61 62 61 58 56 54 53 56 59 64 70 72 71 71 72 77 91 103 105 112 119 120 130 143 156 170 174 176 179 177 173 176 180 179 173 169 183 202 207 206 203 199 201 207 215 220
356 4 342 319 95 89 64 34 8 348 0 92 100 121 122 118 119 114 97 90 90 354 10 57 60 67 76 71 68 73 64 63 78 79 73 67 65 59 53 53 51 46 51 55 54 55 56 57 59 62 67 70 70 70 68 66 69 75 78 80 82 85 86 93 108 121 139 150 159 176 182 183 188 193 194 186 174 174 190 198 199 197 196 200 207 214 220
315 330 315 295 49 66 44 16 348 321 296 119 89 56 61 101 130 137 141 138 100 37 47 69 59 55 62 58 55 65 64 61 66 65 62 61 58 53 49 51 51 46 48 49 47 49 54 58 61 68 73 74 73 74 73 72 73 73 71 70 69 66 65 68 74 81 88 106 121 130 150 173 188 199 204 202 196 194 195 212 232 231 229 227 226 229 229
195 305 321 349 49 58 52 357 337 316 300 92 85 68 43 53 92 115 121 112 90 67 67 81 78 69 65 57 49 52 58 67 69 65 61 61 60 56 53 53 51 51 57 56 49 45 48 55 65 73 78 79 77 77 75 73 73 70 66 65 63 60 61 62 64 66 67 74 84 84 93 121 147 181 203 209 210 218 240 260 279 290 282 264 252 252 249
154 325 10 48 74 117 194 356 357 5 33 69 81 70 45 64 97 101 100 103 106 105 100 97 98 94 84 71 57 49 48 55 69 71 65 61 61 59 60 63 59 58 63 62 56 51 47 49 60 70 77 79 78 74 72 69 67 65 62 60 58 58 58 57 58 59 60 63 63 60 60 61 55 44 15 297 267 267 278 279 280 283 283 279 270 266 266
122 79 60 98 170 273 326 357 6 19 24 36 61 59 30 29 86 106 107 109 116 119 117 111 109 107 95 77 57 47 48 50 59 69 70 71 70 65 67 70 66 62 63 64 64 61 55 53 57 63 70 76 75 71 68 65 62 60 58 54 51 52 51 50 50 51 53 55 53 51 53 53 50 47 40 24 7 347 311 290 278 268 267 273 278 276 274
110 109 82 81 100 324 344 357 356 20 9 312 40 86 36 6 43 110 121 123 127 126 122 124 128 118 95 76 52 38 47 50 57 66 69 75 79 79 77 76 72 68 68 72 73 70 67 64 64 65 69 72 71 66 63 60 57 54 52 48 45 43 42 42 42 42 43 46 44 42 43 43 41 40 41 36 27 18 356 324 311 302 296 295 291 283 273
85 105 95 85 137 208 263 284 286 270 230 239 202 108 46 18 96 131 133 132 137 138 136 150 160 126 86 76 62 51 69 77 81 78 72 71 80 87 89 90 85 77 73 75 74 71 70 69 67 68 69 69 67 62 58 56 54 51 46 43 41 39 36 34 34 35 35 36 35 33 32 30 27 24 25 25 19 14 5 349 339 336 334 327 314 299 288
59 98 109 128 175 204 241 267 278 271 251 242 148 84 347 177 146 150 143 139 147 153 153 167 179 135 100 112 171 156 124 118 103 85 66 58 64 77 88 91 87 80 74 72 69 67 66 65 64 65 66 65 64 59 55 54 52 49 46 44 43 41 38 33 31 31 31 30 30 28 24 21 17 13 11 8 2 358 354 347 339 333 332 331 327 322 313
71 88 99 106 126 232 263 278 287 286 278 256 119 129 245 169 150 163 155 147 155 165 165 172 173 119 128 144 153 148 142 124 96 85 69 56 60 72 82 83 80 75 69 65 63 62 61 62 64 68 68 66 63 59 55 53 49 46 46 46 46 45 41 36 31 28 26 26 25 24 19 14 11 7 3 359 354 350 347 344 339 333 331 330 326 322 319
63 86 102 106 204 274 298 298 291 296 310 74 157 213 227 150 143 155 155 155 162 165 158 145 94 88 117 130 137 142 140 125 97 87 78 69 69 76 85 85 80 74 67 63 62 60 60 61 64 67 68 65 61 58 55 53 49 46 45 43 43 42 40 37 33 28 26 24 20 18 13 7 3 0 358 355 353 349 344 341 338 334 333 333 330 324 320
31 87 92 72 208 323 332 314 300 318 30 172 204 238 163 124 135 136 137 156 156 129 110 109 107 105 111 118 125 128 125 119 107 92 82 75 72 76 83 84 82 78 72 68 66 62 60 61 60 61 64 62 58 55 52 49 46 44 42 39 38 38 37 36 34 30 27 24 20 17 12 8 6 2 356 353 351 348 345 342 341 340 338 338 337 334 331
38 67 56 58 183 319 330 323 324 10 70 176 172 75 62 84 108 111 103 108 118 113 107 105 106 106 105 108 112 111 106 105 101 93 85 78 74 77 83 84 85 83 78 72 70 65 61 60 58 59 63 62 58 54 50 44 38 35 33 32 32 32 32 33 33 31 30 28 27 24 18 16 17 14 8 3 359 357 354 350 348 348 346 344 344 342 339
67 90 65 69 244 309 333 358 70 36 356 131 114 93 75 66 78 93 90 84 97 110 112 108 104 105 106 108 109 104 98 100 98 92 88 84 81 84 90 92 93 92 87 80 77 72 67 64 63 62 64 63 60 55 47 35 25 22 22 23 26 28 29 30 31 33 34 33 31 28 21 17 16 13 10 6 3 3 2 360 358 355 352 350 349 348 345
69 101 122 152 233 328 6 42 69 57 48 68 86 91 86 72 69 84 92 90 87 94 104 104 100 100 104 107 107 104 101 99 98 95 93 89 85 89 95 97 97 96 92 89 84 78 73 73 72 66 62 60 58 51 39 23 16 14 12 16 27 33 34 35 35 35 32 27 22 19 15 12 9 6 3 359 358 359 357 357 357 355 354 353 350 350 349
80 74 84 108 72 47 46 48 51 56 57 61 74 83 84 80 77 79 87 92 89 88 94 97 97 101 104 102 102 107 106 100 102 107 104 94 90 94 97 98 97 96 95 93 88 80 75 76 76 69 58 53 51 44 32 24 21 19 19 26 34 37 37 37 34 28 21 18 15 12 10 8 4 2 2 360 359 358 356 353 352 350 349 349 348 346 345
93 79 102 122 95 84 77 70 64 62 61 60 65 76 82 82 82 84 87 89 88 86 88 93 98 102 107 106 103 105 108 109 117 118 108 95 96 99 97 94 92 91 91 89 81 73 74 76 73 65 55 49 48 42 35 32 29 27 31 37 36 35 33 29 24 18 14 11 8 4 2 2 360 358 358 357 355 354 353 350 348 347 344 342 341 341 339
66 101 140 130 94 76 68 75 80 78 77 74 67 71 81 82 80 84 90 94 96 93 88 94 97 91 96 110 112 109 108 112 121 125 114 106 107 108 102 95 92 87 86 86 77 69 73 72 60 53 51 47 41 36 34 32 28 28 34 35 32 30 27 20 15 11 6 2 360 358 357 357 356 354 353 352 348 346 345 343 341 340 338 335 335 335 333
77 93 118 109 76 42 30 64 93 96 97 95 85 76 78 80 81 81 80 84 97 104 98 91 87 82 83 98 104 103 95 84 90 114 129 128 123 120 114 106 100 94 88 86 78 68 66 60 47 45 52 47 34 31 32 28 23 24 25 23 21 21 16 11 7 2 358 357 356 357 355 353 351 349 347 346 343 337 334 333 332 331 329 327 329 328 324
137 176 166 145 114 92 127 146 129 113 107 108 105 98 92 91 93 92 85 82 89 98 100 96 90 85 81 84 85 81 67 61 61 71 112 136 137 131 125 119 112 110 104 94 85 73 59 44 34 34 47 44 32 29 31 27 21 18 18 16 15 12 6 3 358 353 353 355 354 353 352 349 345 340 337 338 337 332 330 329 326 325 322 318 318 319 316
196 192 173 152 122 135 182 181 158 148 135 119 115 117 116 113 111 107 102 97 89 83 87 95 98 95 83 81 80 69 54 54 54 55 67 101 140 143 136 129 126 123 114 103 91 72 49 25 20 24 38 39 30 30 31 24 15 10 8 4 1 0 358 355 353 354 355 354 351 348 346 344 342 339 336 335 334 333 332 330 325 319 315 310 308 309 310
148 147 150 139 118 130 167 168 154 159 148 123 116 117 114 113 117 115 112 112 112 96 72 85 98 100 92 86 83 73 56 47 42 40 46 67 125 145 138 132 128 119 109 106 82 35 20 5 4 10 31 35 28 30 30 21 12 3 353 345 343 349 352 350 352 357 355 350 349 347 344 343 343 342 337 333 332 331 327 325 322 317 314 313 311 306 304
108 109 120 112 106 113 125 126 123 128 122 113 108 116 118 114 114 116 113 111 115 114 102 93 99 102 98 92 85 81 68 50 42 42 47 68 114 131 126 122 119 108 107 120 93 354 354 345 344 347 6 33 27 32 29 19 9 357 349 344 344 347 347 346 347 348 346 351 357 358 353 349 348 346 342 336 332 329 326 326 329 328 324 324 323 315 307
86 89 85 81 88 100 105 97 88 108 121 117 111 123 130 126 120 119 119 119 121 120 118 116 112 108 104 98 88 84 81 69 63 61 60 71 93 105 107 111 109 105 121 134 343 328 328 334 341 359 138 94 40 42 32 20 13 4 358 357 355 350 342 337 339 342 348 360 5 358 349 343 339 337 336 334 330 326 323 325 330 330 329 329 326 319 312
54 69 82 83 86 100 117 128 145 160 140 126 124 133 137 132 123 117 118 122 125 125 126 127 126 123 119 112 104 102 99 93 89 78 65 67 71 67 74 95 104 125 148 154 323 311 318 333 350 121 144 127 72 47 26 22 21 16 9 1 356 353 345 338 340 346 353 358 354 345 338 335 332 329 328 328 327 323 320 320 321 323 325 326 324 319 314
76 80 91 103 125 140 139 148 156 160 150 137 135 140 140 129 117 111 111 117 123 128 134 139 138 138 140 134 126 129 132 114 105 98 86 78 68 47 47 58 36 162 176 217 283 293 324 346 40 148 151 131 86 19 13 19 20 18 13 2 354 349 349 348 349 354 356 352 348 344 340 338 338 336 334 331 326 322 321 321 321 322 323 324 326 325 321
120 115 108 124 146 142 133 138 144 147 152 145 140 144 145 129 109 111 121 127 126 128 137 146 146 146 151 151 147 153 171 189 156 121 114 113 111 3 298 303 309 283 225 228 252 278 330 6 80 141 140 104 30 0 7 12 9 5 8 4 354 348 355 360 358 357 357 354 351 349 348 348 349 348 345 341 336 331 329 327 326 327 326 327 331 334 335
149 137 124 128 131 123 131 150 148 142 154 146 134 144 153 136 121 138 154 144 138 135 136 141 146 149 154 160 165 168 177 196 210 195 181 184 218 249 250 255 276 284 256 227 239 269 324 2 48 121 108 5 346 354 1 1 355 347 350 355 351 351 360 3 359 357 358 358 357 357 357 356 353 351 349 348 345 341 339 337 334 332 330 331 337 341 343
126 109 110 121 125 120 134 161 153 146 157 150 131 128 133 127 132 156 166 150 146 145 139 138 143 149 151 154 162 169 174 185 198 207 226 245 249 252 249 245 262 277 262 239 247 268 308 338 344 189 218 288 306 336 347 345 343 340 341 347 350 352 354 357 2 7 9 7 7 8 6 3 1 0 357 354 351 350 348 345 341 336 334 335 340 341 339
100 87 83 85 92 85 70 125 151 156 159 146 139 139 137 137 144 154 160 160 155 151 151 153 154 153 153 157 165 173 182 192 203 215 230 239 242 247 250 253 265 270 259 249 254 269 297 313 303 249 237 265 283 322 343 338 337 353 353 348 345 341 343 357 14 22 22 22 23 24 22 17 16 15 10 6 7 7 3 359 356 355 354 350 344 341 343
113 108 103 96 82 66 46 77 150 159 160 151 151 151 143 144 151 156 161 167 166 161 165 170 167 160 164 173 180 190 202 207 213 222 228 230 236 247 257 265 270 266 256 250 253 268 289 296 280 240 240 258 278 324 333 318 319 354 351 344 339 330 338 23 37 30 30 37 40 37 30 20 18 20 18 15 18 19 17 15 14 11 9 6 358 356 8
164 174 179 180 160 134 127 134 137 139 153 166 163 153 143 145 154 160 163 166 170 173 176 178 174 172 176 184 194 205 209 209 216 225 226 226 232 241 251 263 267 263 255 249 252 267 280 271 245 239 245 240 260 307 308 277 265 331 330 334 338 332 346 71 61 42 39 47 48 41 30 17 12 15 18 18 21 23 20 18 16 13 13 17 16 18 27
181 188 179 179 174 155 142 145 154 155 158 171 175 170 162 158 160 166 170 171 174 183 188 185 183 182 183 189 208 220 219 224 233 235 231 229 232 236 244 253 257 260 257 251 253 264 261 229 227 263 263 235 250 281 271 226 211 284 320 342 355 7 76 89 73 62 64 63 50 41 34 22 13 14 20 21 22 22 21 24 29 34 39 43 44 49 60
90 97 77 100 157 145 133 139 159 168 171 181 188 187 180 173 172 177 183 183 185 197 200 191 185 184 188 200 220 229 231 238 244 241 239 239 236 235 241 244 246 255 260 255 251 249 227 216 241 275 267 241 239 248 235 210 207 243 313 359 22 75 109 100 78 76 80 75 55 39 30 19 11 17 25 26 24 25 32 47 57 61 64 66 69 74 78
95 97 78 45 31 135 128 134 149 157 165 186 195 193 193 194 189 188 190 192 195 201 199 191 186 189 199 215 228 234 236 241 245 244 245 244 236 232 237 240 239 245 254 253 246 229 212 222 251 269 254 224 206 210 208 184 188 229 294 16 48 92 113 104 85 76 71 62 49 36 24 18 21 30 35 35 35 41 53 64 71 74 79 81 83 86 87
103 112 111 97 292 214 151 138 141 143 145 163 179 184 193 203 197 191 193 201 204 204 202 198 198 203 212 222 230 233 233 235 243 245 242 238 234 233 236 240 240 239 241 244 239 223 218 233 248 242 212 188 183 191 188 144 159 232 272 20 77 101 109 99 83 75 68 57 48 44 38 35 35 38 40 43 50 61 71 76 78 81 86 89 90 92 93
72 79 74 47 4 323 210 168 172 178 167 163 166 168 172 184 192 194 200 208 210 211 210 206 203 209 218 224 231 235 233 230 236 243 242 238 235 237 244 251 251 242 232 230 227 218 220 236 240 215 191 184 194 213 212 177 187 241 246 207 113 111 115 104 86 80 74 64 54 49 45 41 40 44 51 56 64 76 86 90 91 91 92 93 95 96 95
86 83 69 36 355 335 329 307 182 196 190 182 183 183 182 187 197 207 215 217 218 223 219 209 204 210 219 225 232 239 238 231 231 239 243 239 235 242 256 262 252 225 212 214 216 215 220 236 239 216 202 209 245 249 226 217 236 238 222 200 154 129 125 114 106 105 94 72 61 55 47 43 45 56 67 72 78 86 94 98 99 100 99 99 100 100 99
121 147 168 170 188 335 349 5 17 18 196 197 200 203 203 205 211 221 229 234 238 234 223 211 207 213 222 229 236 245 246 236 231 235 239 235 229 235 249 256 236 207 210 217 216 213 222 235 237 222 218 240 269 245 215 224 244 228 208 201 180 154 141 125 120 126 119 89 76 68 56 49 50 62 80 86 85 91 100 104 105 106 106 105 105 106 104
176 175 168 150 142 146 345 353 3 12 15 348 217 211 210 212 217 229 241 249 250 234 222 214 213 220 228 233 238 244 243 234 229 230 234 235 231 231 240 246 221 202 212 219 217 216 225 233 232 228 236 265 268 229 216 238 235 209 198 199 190 170 159 146 136 138 136 113 88 73 63 58 53 59 82 96 97 98 105 109 111 113 115 113 112 112 111
267 230 196 177 169 179 204 239 325 360 359 354 349 323 239 214 208 220 234 239 234 224 218 215 219 226 229 226 224 225 222 220 225 230 233 236 238 236 237 240 214 199 205 213 220 226 231 233 230 233 250 269 257 229 223 229 209 196 193 196 190 178 171 163 152 148 148 136 104 81 83 88 73 62 76 100 109 111 112 114 117 119 121 121 120 119 118
269 271 249 230 219 216 216 215 219 251 284 309 336 339 308 245 222 222 227 226 226 228 220 216 221 224 217 205 203 211 214 216 225 231 230 233 241 240 231 220 210 208 210 216 226 234 235 228 222 227 245 256 239 220 204 190 189 191 195 196 190 183 179 175 167 162 158 147 126 111 113 124 118 91 80 97 116 123 123 122 124 126 127 129 128 125 123
268 281 277 253 238 233 228 220 218 225 238 256 294 323 320 278 245 241 243 246 253 254 241 231 232 227 216 210 213 221 224 223 228 231 227 228 239 245 234 218 215 220 223 225 232 239 234 217 210 217 236 241 226 206 184 167 173 187 195 196 193 189 184 180 177 174 168 161 151 142 131 123 127 128 115 111 123 130 129 129 132 134 134 134 135 131 129
309 313 308 260 239 237 236 230 226 225 227 238 262 281 294 293 267 258 255 263 278 280 270 261 259 252 236 228 226 227 230 232 236 239 235 231 239 254 248 227 219 219 222 229 237 237 222 209 212 225 232 224 211 198 180 164 162 175 187 192 193 192 188 183 181 178 175 176 175 168 156 138 130 137 137 131 130 132 132 134 139 140 138 138 139 137 135
325 319 311 283 258 247 239 232 228 221 211 219 250 263 261 253 252 251 251 281 305 306 291 274 267 266 257 239 228 224 227 230 231 234 238 238 241 249 249 234 223 218 220 231 239 230 212 211 224 230 217 203 197 192 183 175 173 177 181 184 188 189 186 184 184 182 180 183 185 182 180 180 176 170 165 157 151 150 147 140 137 138 140 142 144 144 144
316 312 306 301 284 256 234 221 215 213 211 219 245 263 264 258 251 244 247 266 289 301 295 276 266 265 266 258 245 235 230 227 227 230 236 238 236 233 229 226 221 217 219 230 237 228 220 227 234 220 201 193 188 182 180 182 188 192 186 182 184 185 183 183 185 184 184 186 188 190 192 192 191 192 196 195 191 191 189 181 172 168 162 154 150 150 149
304 303 302 307 294 245 220 209 208 213 220 226 236 248 254 254 249 240 237 243 257 272 276 263 253 252 262 277 272 250 234 228 231 237 239 234 228 222 217 215 216 217 223 233 237 231 231 233 223 203 195 194 189 181 181 188 197 199 194 189 188 189 189 190 190 190 190 192 194 195 197 197 196 197 202 206 210 213 213 212 211 210 210 209 202 190 181
304 299 293 294 285 250 226 221 224 228 230 233 239 246 248 243 239 240 238 234 236 250 265 267 260 255 256 263 266 252 237 233 235 239 238 222 210 208 208 209 213 220 229 231 226 223 224 214 198 189 191 195 192 188 193 205 214 212 208 202 196 193 193 195 196 197 199 200 199 197 196 197 199 203 208 212 215 216 213 210 209 209 214 219 220 219 221
307 306 302 303 304 293 271 256 250 246 241 238 241 249 250 242 238 244 246 237 231 236 245 246 243 243 245 244 240 239 241 241 238 233 226 212 202 200 203 206 210 220 227 219 210 210 211 198 187 183 188 194 193 194 205 220 225 219 213 209 204 200 198 198 199 200 201 202 202 201 201 202 205 209 211 213 216 217 215 213 210 208 209 215 222 226 227
316 321 326 326 325 320 303 279 259 249 244 240 238 245 252 248 242 243 244 241 240 243 244 240 234 231 231 231 227 223 229 240 237 225 218 211 204 202 204 207 209 215 219 214 208 205 200 193 190 191 193 194 196 202 216 224 219 206 198 198 199 200 201 202 204 205 205 205 206 207 208 211 215 217 214 213 217 219 221 221 223 223 223 224 225 224 222